sat.trackr.live / text

‹ back to catalog

QIANFAN-67

NORAD 62797 · 2025-016N

PAYLOAD ACTIVE UNKNOWN

§ Identity

Operator
Country
PRC
Launch date
2025-01-23
Launch site
TAISC
Launch vehicle
Mass (kg)
RCS (m²)

External: N2YO · Heavens-Above · Gunter

§ Orbital elements

Epoch: 2026-09-22T20:50:56.347872Z

Period
106.59 min
Inclination
88.9666°
Eccentricity
0.0013384
Mean motion
13.51020199 rev/d
Perigee alt
1,058.5 km
Apogee alt
1,078.5 km
Semi-major
7,446.6 km
B*
7.7968e-5
RAAN
73.5331°
Arg perigee
241.4579°
Mean anomaly
118.5226°
Rev number
8,562

§ Raw data

QIANFAN-671 62797U 25016N   26265.86870773  .00000062  00000+0  77968-4 0  99902 62797  88.9666  73.5331 0013384 241.4579 118.5226 13.51020199 85626

JSON: /api/v1/satellites/62797 · /tle

For live sub-satellite position, see the globe view (requires WebGL).

§ Visibility from observer

Set your observer location to see the next 7 days of passes ≥ 10°. The values pass through the URL so the page stays shareable.

No JS? Fill the form by hand. The geolocation button needs JavaScript.